Simultaneous Nadir Overpasses (SNOs) Predictions

Prediction of SNOs between GOES-15 and TERRA Satellite Orbit:

Table of predicted SNOs for the next 14.0 days since TLE Epoch: 10/11/2013
Index Date Time (GOES-15) GOES-15 Lat,Lon TERRA Lat,Lon Distance(km) Time Diff (sec)
1 10/13/2013 07:15:48 0.37,-134.99 1.04,-131.96 344.99 80
2 10/13/2013 19:37:01 -0.36,-134.97 0.10,-137.11 243.06 80
3 10/15/2013 19:27:27 -0.36,-134.92 -0.52,-134.14 88.22 80
4 10/17/2013 19:15:14 -0.36,-134.86 -1.15,-131.18 419.18 80
5 10/18/2013 07:36:36 0.35,-134.86 0.01,-136.36 171.28 80
6 10/20/2013 07:21:42 0.35,-134.79 0.64,-133.39 158.96 80
7 10/20/2013 19:42:57 -0.34,-134.76 0.44,-138.55 430.48 80
8 10/22/2013 07:09:28 0.35,-134.72 1.28,-130.43 488.72 80
9 10/22/2013 19:30:42
